Regional Weather Roundup
Issued by NWS Midland/Odessa, TX

Home | Current Version | Previous Version | Text Only | Print | Product List | Glossary On
Versions: 1 2 3 4 5 6 7 8 9 10 11 12 13 14 15 16 17 18 19 20 21 22 23 24 25 26 27 28 29 30 31 32 33 34 35 36 37 38 39 40 41 42 43 44 45 46 47 48 49 50
000
ASUS44 KMAF 272301
RWRMAF
MIDLAND AREA WEATHER ROUNDUP
NATIONAL WEATHER SERVICE MIDLAND TX
600 PM CDT TUE JUN 27 2017

...IN SOUTHWEST TEXAS AND SOUTHEAST NEW MEXICO...

CITY           SKY/WX    TMP DP  RH WIND       PRES   REMARKS
ALPINE         FAIR      90  47  22 NE8G16    30.09F
ANDREWS        FAIR      88  56  34 SE10G16   29.98F
ARTESIA        SUNNY     93  52  24 SE22      29.93F
BIG SPRING     FAIR      91  58  32 SE9       29.97F
CARLSBAD       SUNNY     93  52  24 SE13G22   29.92F
DRYDEN           N/A     93  60  33 SE12G17   29.91F
FORT STOCKTON  FAIR      92  53  26 SE9       29.95F
GUAD PASS      NOT AVBL
HOBBS          SUNNY     90  46  22 SE12G20   30.00F
MARFA          FAIR      88  52  29 W10         N/A
MIDLAND AIRPK  FAIR      90  57  32 SE5       29.97F
MIDLAND INTL   FAIR      90  59  35 SE9       29.96F
ODESSA         FAIR      89  59  36 SE6       29.98F
PECOS          FAIR      96  52  22 E9        29.92F
PRESIDIO       FAIR      85  58  39 N10G16    29.95S
SEMINOLE       FAIR      89  55  31 SE14      29.99F
SNYDER         FAIR      89  59  36 S9G16     29.96F
WINK           FAIR      93  52  24 SE12      29.92F
$$
...OTHER STATIONS IN TEXAS...

CITY           SKY/WX    TMP DP  RH WIND       PRES   REMARKS
ABILENE        FAIR      89  64  43 SE14      29.94F
AMARILLO       NOT AVBL
AUSTIN         PTSUNNY   80  69  69 S16       29.95R
BROWNSVILLE    FAIR      83  77  82 E8        29.84F
CORPUS CHRISTI PTSUNNY   88  73  61 E10       29.89F
DALLAS FTW     PTSUNNY   76  69  79 E5        29.93F
DEL RIO        FAIR      93  62  35 E12G20    29.87F
EL PASO        MOSUNNY   94  51  23 CALM      29.95F
HOUSTON INT    PTSUNNY   84  71  65 E13       29.94F
LUBBOCK        FAIR      90  54  29 S18       29.96F
SAN ANGELO     FAIR      91  60  35 E9        29.94F
SAN ANTONIO    PTSUNNY   79  71  76 SE17      29.95F
WACO           PTSUNNY   91  70  49 E14       29.92F
WICHITA FALLS  NOT AVBL
$$
...OTHER LOCATIONS IN NEW MEXICO...

CITY           SKY/WX    TMP DP  RH WIND       PRES   REMARKS
ALAMOGORDO     SUNNY     93  43  17 S3        29.97F
ALBUQUERQUE    MOSUNNY   91  44  19 S28G33    29.98F
CANNON AFB     SUNNY     91  44  19 S15G24    29.97F
CLOVIS         NOT AVBL
HOLLOMAN AFB   SUNNY     97  41  14 NW9       29.96F
ROSWELL        SUNNY     95  45  17 S20G28    29.92F
RUIDOSO        MOSUNNY   81  45  28 S9G21     30.18F
SANTA FE       MOSUNNY   90  37  15 SW12G21   30.05F
TRUTH OR CONSE CLOUDY    89  45  21 S7        30.01F
TUCUMCARI      SUNNY     93  50  23 S22G30    29.86F
$$



USA.gov is the U.S. government's official web portal to all federal, state and local government web resources and services.